Weather History for Shenandoah, IA

Change the Weather History Date:

Monday, April 8, 2013

  Actual Average Record
Temperature  
Mean Temperature 56 °F -  
Max Temperature 69 °F 62 °F 89 °F (2001)
Min Temperature 44 °F 39 °F 19 °F (2007)
Degree Days  
Heating Degree Days 8    
Growing Degree Days 6 (Base 50)    
Moisture  
Dew Point 52 °F    
Average Humidity 80    
Maximum Humidity 93    
Minimum Humidity 68    
Precipitation  
Precipitation 0.11 in - - ()
Sea Level Pressure  
Sea Level Pressure 29.70 in    
Wind  
Wind Speed 7 mph (SE)    
Max Wind Speed 20 mph    
Max Gust Speed 17 mph    
Visibility 9 miles    
Events Fog , Rain    
Averages and records for this station are not official NWS values.
T = Trace of Precipitation, MM = Missing Value Source: NWS Daily Summary

Daily Weather History Graph

Daily Weather History Graph

Search for Another Location

Airport:

Trip Planner

Search our weather history database for the weather conditions in past years. The results will help you decide how hot, cold, wet, or windy it might be!

Date:

Astronomy

Apr. 08, 2013 Rise Set
Actual Time 6:53 AM CDT 7:54 PM CDT
Civil Twilight 6:25 AM CDT 8:22 PM CDT
Nautical Twilight 5:52 AM CDT 8:55 PM CDT
Astronomical Twilight 5:17 AM CDT 9:30 PM CDT
Moon 5:44 AM CDT (4/8) 6:29 PM CDT (4/8)
Length of Visible Light 13h 56m
Length of Day
13h 00m
Waning Crescent, 3% of the Moon is Illuminated
Apr 8
Waning Crescent
Apr 10
New
Apr 18
First Quarter
Apr 25
Full
May 2
Last Quarter

Hourly Weather History & Observations

Time (CDT) Temp. Windchill Dew Point Humidity Pressure Visibility Wind Dir Wind Speed Gust Speed Precip Events Conditions
12:15 AM 55.4 °F - 48.2 °F 77% 29.68 in 10.0 mi SSE 19.6 mph - 0.08 in Rain Heavy Rain
12:35 AM 55.4 °F - 50.0 °F 82% 29.70 in 10.0 mi South 10.4 mph - 0.11 in Rain Light Rain
12:55 AM 53.6 °F - 48.2 °F 82% 29.72 in 10.0 mi SW 5.8 mph - 0.11 in   Overcast
1:15 AM 53.6 °F - 48.2 °F 82% 29.72 in 10.0 mi Calm Calm - N/A   Overcast
1:35 AM 53.6 °F - 48.2 °F 82% 29.72 in 10.0 mi Calm Calm - N/A   Overcast
1:55 AM 53.6 °F - 48.2 °F 82% 29.71 in 10.0 mi Calm Calm - N/A   Overcast
2:15 AM 51.8 °F - 48.2 °F 88% 29.70 in 10.0 mi SSW 5.8 mph - N/A   Overcast
2:35 AM 51.8 °F - 46.4 °F 82% 29.67 in 7.0 mi SSW 11.5 mph - N/A   Mostly Cloudy
2:55 AM 51.8 °F - 46.4 °F 82% 29.66 in 10.0 mi SSW 12.7 mph - N/A   Clear
3:15 AM 51.8 °F - 46.4 °F 82% 29.66 in 10.0 mi WSW 5.8 mph - N/A   Scattered Clouds
3:35 AM 50.0 °F - 44.6 °F 82% 29.65 in 10.0 mi SSW 4.6 mph - N/A   Scattered Clouds
3:55 AM 48.2 °F - 44.6 °F 87% 29.65 in 10.0 mi SW 5.8 mph - N/A   Scattered Clouds
4:15 AM 48.2 °F - 44.6 °F 87% 29.65 in 10.0 mi WSW 6.9 mph - N/A   Scattered Clouds
4:35 AM 46.4 °F 44.3 °F 42.8 °F 87% 29.64 in 7.0 mi SW 4.6 mph - N/A   Scattered Clouds
4:55 AM 46.4 °F 44.3 °F 42.8 °F 87% 29.65 in 7.0 mi SW 4.6 mph - N/A   Clear
5:15 AM 46.4 °F 45.2 °F 42.8 °F 87% 29.65 in 7.0 mi SW 3.5 mph - N/A   Scattered Clouds
5:35 AM 46.4 °F - 42.8 °F 87% 29.66 in 3.0 mi Calm Calm - N/A   Clear
5:55 AM 44.6 °F 42.2 °F 42.8 °F 93% 29.66 in 4.0 mi SW 4.6 mph - N/A   Scattered Clouds
6:15 AM 44.6 °F - 42.8 °F 93% 29.66 in 0.5 mi Calm Calm - N/A Fog Fog
6:35 AM 46.4 °F - 42.8 °F 87% 29.67 in 1.0 mi Calm Calm - N/A   Overcast
6:55 AM 46.4 °F - 42.8 °F 87% 29.67 in 10.0 mi Calm Calm - N/A   Mostly Cloudy
7:15 AM 44.6 °F - 41.0 °F 87% 29.68 in 3.0 mi Calm Calm - N/A   Mostly Cloudy
7:35 AM 46.4 °F 45.2 °F 44.6 °F 93% 29.68 in 7.0 mi SSW 3.5 mph - N/A   Overcast
7:55 AM 48.2 °F - 44.6 °F 87% 29.69 in 10.0 mi Calm Calm - N/A   Overcast
8:15 AM 48.2 °F - 44.6 °F 87% 29.70 in 10.0 mi Calm Calm - N/A   Overcast
8:35 AM 50.0 °F - 46.4 °F 87% 29.70 in 10.0 mi Calm Calm - N/A   Overcast
8:55 AM 51.8 °F - 46.4 °F 82% 29.70 in 10.0 mi Calm Calm - N/A   Overcast
9:15 AM 53.6 °F - 48.2 °F 82% 29.71 in 10.0 mi Calm Calm - N/A   Overcast
9:35 AM 53.6 °F - 48.2 °F 82% 29.71 in 10.0 mi Calm Calm - N/A   Overcast
9:55 AM 55.4 °F - 50.0 °F 82% 29.71 in 10.0 mi Calm Calm - N/A   Overcast
10:15 AM 55.4 °F - 50.0 °F 82% 29.72 in 10.0 mi Calm Calm - N/A   Overcast
10:35 AM 57.2 °F - 51.8 °F 82% 29.72 in 10.0 mi Calm Calm - N/A   Overcast
10:55 AM 59.0 °F - 51.8 °F 77% 29.72 in 10.0 mi Calm Calm - N/A   Overcast
11:15 AM 59.0 °F - 53.6 °F 82% 29.73 in 10.0 mi Calm Calm - N/A   Overcast
11:35 AM 60.8 °F - 53.6 °F 77% 29.73 in 10.0 mi ESE 5.8 mph - N/A   Overcast
11:55 AM 60.8 °F - 55.4 °F 82% 29.74 in 10.0 mi ESE 9.2 mph - N/A   Overcast
12:15 PM 60.8 °F - 55.4 °F 82% 29.74 in 7.0 mi SE 8.1 mph - N/A   Overcast
12:35 PM 62.6 °F - 55.4 °F 77% 29.74 in 7.0 mi SSE 6.9 mph - N/A   Overcast
12:55 PM 62.6 °F - 55.4 °F 77% 29.74 in 10.0 mi SSE 4.6 mph - N/A   Overcast
1:15 PM 62.6 °F - 55.4 °F 77% 29.73 in 10.0 mi SE 4.6 mph - N/A   Overcast
1:35 PM 62.6 °F - 55.4 °F 77% 29.74 in 10.0 mi SSE 8.1 mph - N/A   Overcast
1:55 PM 64.4 °F - 55.4 °F 73% 29.73 in 10.0 mi SE 4.6 mph - N/A   Overcast
2:15 PM 64.4 °F - 55.4 °F 73% 29.73 in 10.0 mi SE 4.6 mph - N/A   Overcast
2:35 PM 64.4 °F - 55.4 °F 73% 29.73 in 10.0 mi ESE 4.6 mph - N/A   Overcast
2:55 PM 64.4 °F - 57.2 °F 77% 29.72 in 10.0 mi SE 9.2 mph - N/A   Overcast
3:15 PM 64.4 °F - 57.2 °F 77% 29.72 in 10.0 mi SE 8.1 mph - N/A   Overcast
3:35 PM 64.4 °F - 57.2 °F 77% 29.72 in 10.0 mi SSE 8.1 mph - N/A   Overcast
3:55 PM 66.2 °F - 57.2 °F 73% 29.70 in 10.0 mi ESE 6.9 mph - N/A   Scattered Clouds
4:15 PM 68.0 °F - 57.2 °F 68% 29.69 in 10.0 mi ESE 6.9 mph - N/A   Clear
4:35 PM 68.0 °F - 59.0 °F 73% 29.69 in 10.0 mi SE 5.8 mph - N/A   Clear
4:55 PM 69.8 °F - 59.0 °F 68% 29.70 in 10.0 mi SE 8.1 mph - N/A   Scattered Clouds
5:15 PM 69.8 °F - 59.0 °F 68% 29.70 in 10.0 mi SSE 11.5 mph - N/A   Scattered Clouds
5:35 PM 69.8 °F - 59.0 °F 68% 29.70 in 10.0 mi ESE 5.8 mph - N/A   Scattered Clouds
5:55 PM 69.8 °F - 59.0 °F 68% 29.70 in 10.0 mi ESE 8.1 mph - N/A   Scattered Clouds
6:15 PM 69.8 °F - 59.0 °F 68% 29.70 in 10.0 mi ESE 8.1 mph - N/A   Scattered Clouds
6:35 PM 68.0 °F - 59.0 °F 73% 29.70 in 10.0 mi East 6.9 mph - N/A   Mostly Cloudy
6:55 PM 68.0 °F - 59.0 °F 73% 29.71 in 10.0 mi East 8.1 mph - N/A   Mostly Cloudy
7:15 PM 68.0 °F - 59.0 °F 73% 29.71 in 10.0 mi East 6.9 mph - N/A   Mostly Cloudy
7:35 PM 66.2 °F - 59.0 °F 78% 29.71 in 10.0 mi East 8.1 mph - N/A   Mostly Cloudy
7:55 PM 66.2 °F - 57.2 °F 73% 29.71 in 10.0 mi East 6.9 mph - N/A   Mostly Cloudy
8:15 PM 66.2 °F - 57.2 °F 73% 29.72 in 10.0 mi East 9.2 mph - N/A   Scattered Clouds
8:35 PM 66.2 °F - 57.2 °F 73% 29.72 in 10.0 mi East 10.4 mph - N/A   Scattered Clouds
8:55 PM 64.4 °F - 57.2 °F 77% 29.73 in 10.0 mi East 9.2 mph - N/A   Mostly Cloudy
9:15 PM 64.4 °F - 57.2 °F 77% 29.73 in 10.0 mi ESE 10.4 mph - N/A   Scattered Clouds
9:35 PM 64.4 °F - 57.2 °F 77% 29.73 in 10.0 mi ESE 12.7 mph 17.3 mph N/A   Scattered Clouds
9:55 PM 64.4 °F - 57.2 °F 77% 29.73 in 10.0 mi ESE 11.5 mph - N/A   Clear
10:15 PM 64.4 °F - 57.2 °F 77% 29.74 in 10.0 mi ESE 10.4 mph - N/A   Scattered Clouds
10:35 PM 62.6 °F - 57.2 °F 82% 29.74 in 10.0 mi ESE 9.2 mph - N/A   Scattered Clouds
10:55 PM 62.6 °F - 57.2 °F 82% 29.73 in 10.0 mi ESE 10.4 mph - N/A   Scattered Clouds
11:15 PM 62.6 °F - 55.4 °F 77% 29.73 in 7.0 mi SE 8.1 mph - N/A   Scattered Clouds
11:35 PM 62.6 °F - 57.2 °F 82% 29.71 in 10.0 mi SE 10.4 mph - N/A   Overcast
11:55 PM 62.6 °F - 57.2 °F 82% 29.70 in 10.0 mi SE 6.9 mph - N/A   Overcast